This is the latest recevied weather packets stored in our database for station/object WD7OO. If no packets are shown the sender has not sent any weather packets the latest 10 day(s).
| Time | Temp. | Humidity | Pressure | Rain* | Wind** | Luminosity | Snow |
|---|---|---|---|---|---|---|---|
| 1778097091 | 13.33° C | 40% | 1014.2 hPa | 0 mm | - | 511 W/m² | - |
| 1778096789 | 13.33° C | 38% | 1014.2 hPa | 0 mm | - | 496 W/m² | - |
| 1778096485 | 13.89° C | 38% | 1014.2 hPa | 0 mm | - | 511 W/m² | - |
| 1778096183 | 12.78° C | 40% | 1014.3 hPa | 0 mm | - | 502 W/m² | - |
| 1778095880 | 13.33° C | 35% | 1014.3 hPa | 0 mm | - | 413 W/m² | - |
| 1778095577 | 13.33° C | 36% | 1014.2 hPa | 0 mm | - | 473 W/m² | - |
| 1778095273 | 12.78° C | 39% | 1014.1 hPa | 0 mm | - | 545 W/m² | - |
| 1778094970 | 13.33° C | 34% | 1014.2 hPa | 0 mm | - | 442 W/m² | - |
| 1778094665 | 13.89° C | 40% | 1014 hPa | 0 mm | - | 638 W/m² | - |
| 1778094363 | 13.33° C | 38% | 1014 hPa | 0 mm | - | 675 W/m² | - |
| 1778094060 | 13.89° C | 40% | 1014.1 hPa | 0 mm | - | 658 W/m² | - |
| 1778093757 | 13.89° C | 39% | 1014 hPa | 0 mm | - | 704 W/m² | - |
| 1778093453 | 13.89° C | 39% | 1014.1 hPa | 0 mm | - | 594 W/m² | - |
| 1778093151 | 13.89° C | 36% | 1014.2 hPa | 0 mm | - | 513 W/m² | - |
| 1778092848 | 13.89° C | 39% | 1014.6 hPa | 0 mm | - | 816 W/m² | - |
| 1778092543 | 13.33° C | 40% | 1014.3 hPa | 0 mm | - | 813 W/m² | - |
| 1778092235 | 13.33° C | 41% | 1014.3 hPa | 0 mm | - | 795 W/m² | - |
| 1778091933 | 13.33° C | 42% | 1014.2 hPa | 0 mm | - | 729 W/m² | - |
| 1778091630 | 13.33° C | 44% | 1014.1 hPa | 0 mm | - | 805 W/m² | - |
| 1778091328 | 13.33° C | 39% | 1014.2 hPa | 0 mm | - | 785 W/m² | - |
| 1778091024 | 13.89° C | 44% | 1014.1 hPa | 0 mm | - | 322 W/m² | - |
| 1778090721 | 12.78° C | 42% | 1014 hPa | 0 mm | - | 629 W/m² | - |
| 1778090417 | 12.78° C | 42% | 1014.3 hPa | 0 mm | - | 436 W/m² | - |
| 1778090114 | 12.78° C | 41% | 1014.2 hPa | 0 mm | - | 432 W/m² | - |
| 1778089810 | 13.33° C | 45% | 1014 hPa | 0 mm | - | 555 W/m² | - |
* Rain latest hour (hover to see other rain measurements)
** Current wind speed in m/s (hover to see current wind gust speed)